Location: Beuerbach
(48.1459°N, 10.9174°E)
Time: 02:27:30
(UTC+00:00)

Cosmos 1892 - Pass Details

Date: 23 May 2024
Orbit: 455 x 469 km, 82.5° (Epoch: 13 June)

Event Time Altitude Azimuth Distance (km) Brightness Sun altitude
Exits shadow 02:40:35 - 193° (SSW) 2,017 5.2 -7.1°
Reaches altitude 10° 02:41:34 10° 195° (SSW) 1,602 4.7 -6.9°
Maximum altitude 02:45:03 73° 280° (W) 486 2.4 -6.5°
Drops below altitude 10° 02:48:34 10° 6° (N) 1,610 6.0 -6.1°
Sets 02:50:39 0° 8° (N) 2,488 7.0 -5.8°
